FW3572 Weather Reports


time (UTC)temp
C
wind
direction
speed
KPH
gust
KPH
rain 1hr
cm
rain 24hr
cm
rain mn
cm
humidity
%
barometer
mb
20260509225059 28 176 9.7 25.7 0.00 0.00 0.00 100 1012.8
20260509224604 28 169 17.7 30.6 0.00 0.00 0.00 100 1012.7
20260509224057 28 171 9.7 32.2 0.00 0.00 0.00 100 1012.7
20260509223554 28 159 11.3 32.2 0.00 0.00 0.00 100 1012.7
20260509223055 28 134 16.1 32.2 0.00 0.00 0.00 100 1012.7
20260509222556 28 163 12.9 35.4 0.00 0.00 0.00 100 1012.7
20260509222054 28 151 14.5 35.4 0.00 0.00 0.00 100 1012.7
20260509221553 29 157 14.5 30.6 0.00 0.00 0.00 100 1012.7
20260509221053 29 155 16.1 30.6 0.00 0.00 0.00 100 1012.8
20260509220552 29 155 12.9 27.4 0.00 0.00 0.00 100 1012.9
20260509220053 29 186 9.7 35.4 0.00 0.00 0.00 100 1012.8
20260509215552 29 118 14.5 35.4 0.00 0.00 0.00 100 1012.8
20260509214551 29 115 19.3 35.4 0.00 0.00 0.00 100 1012.8
20260509214051 28 134 17.7 35.4 0.00 0.00 0.00 100 1012.8
20260509213551 29 154 14.5 27.4 0.00 0.00 0.00 100 1012.8
20260509213102 29 138 17.7 27.4 0.00 0.00 0.00 100 1012.9
20260509212550 29 165 9.7 29.0 0.00 0.00 0.00 100 1012.8
20260509212050 29 168 16.1 33.8 0.00 0.00 0.00 100 1012.8
20260509211611 29 159 14.5 33.8 0.00 0.00 0.00 100 1012.8
20260509211051 29 148 11.3 30.6 0.00 0.00 0.00 100 1012.9
20260509210549 29 149 19.3 30.6 0.00 0.00 0.00 100 1012.8
20260509210056 28 161 14.5 35.4 0.00 0.00 0.00 100 1012.9
20260509205550 29 163 17.7 35.4 0.00 0.00 0.00 100 1012.9
20260509205048 28 133 17.7 32.2 0.00 0.00 0.00 100 1013.0
20260509204559 29 171 19.3 32.2 0.00 0.00 0.00 100 1012.9
20260509204048 30 123 9.7 20.9 0.00 0.00 0.00 100 1013.0
20260509203547 30 180 9.7 29.0 0.00 0.00 0.00 100 1012.9
20260509203057 29 140 14.5 29.0 0.00 0.00 0.00 100 1012.9
20260509202548 29 174 14.5 27.4 0.00 0.00 0.00 100 1013.0
20260509202047 29 140 16.1 27.4 0.00 0.00 0.00 100 1013.1
20260509201544 30 119 11.3 24.1 0.00 0.00 0.00 100 1013.0
20260509201044 30 127 11.3 22.5 0.00 0.00 0.00 100 1013.1
20260509200544 30 126 11.3 22.5 0.00 0.00 0.00 100 1013.2
20260509200044 30 130 8.0 25.7 0.00 0.00 0.00 100 1013.2
20260509195543 29 147 14.5 29.0 0.00 0.00 0.00 100 1013.2
20260509195043 29 156 14.5 29.0 0.00 0.00 0.00 100 1013.2
20260509194545 29 224 12.9 22.5 0.00 0.00 0.00 100 1013.4
20260509194043 29 182 12.9 24.1 0.00 0.00 0.00 100 1013.3
20260509193543 30 185 9.7 30.6 0.00 0.00 0.00 100 1013.4
20260509193054 29 182 16.1 32.2 0.00 0.00 0.00 100 1013.4
20260509192542 29 134 16.1 32.2 0.00 0.00 0.00 100 1013.5
20260509192040 29 136 14.5 30.6 0.00 0.00 0.00 100 1013.5
20260509191540 30 142 16.1 25.7 0.00 0.00 0.00 100 1013.7
20260509191039 30 150 11.3 22.5 0.00 0.00 0.00 100 1013.8
20260509190541 30 128 11.3 27.4 0.00 0.00 0.00 100 1013.7
20260509190046 30 138 9.7 27.4 0.00 0.00 0.00 100 1013.8
20260509185538 30 151 8.0 30.6 0.00 0.00 0.00 100 1013.9
20260509185037 30 120 14.5 30.6 0.00 0.00 0.00 100 1013.9
20260509184537 30 146 16.1 27.4 0.00 0.00 0.00 100 1014.0
20260509184037 30 130 9.7 29.0 0.00 0.00 0.00 100 1014.0
20260509183607 29 146 11.3 30.6 0.00 0.00 0.00 100 1013.9
20260509183038 29 169 14.5 29.0 0.00 0.00 0.00 100 1013.9
20260509182536 29 138 11.3 24.1 0.00 0.00 0.00 100 1014.0
20260509182036 30 146 12.9 29.0 0.00 0.00 0.00 100 1014.0
20260509181535 29 147 14.5 29.0 0.00 0.00 0.00 100 1014.1
20260509181035 29 127 12.9 27.4 0.00 0.00 0.00 100 1014.1
20260509180534 29 149 16.1 29.0 0.00 0.00 0.00 100 1014.2
20260509180034 29 149 16.1 29.0 0.00 0.00 0.00 100 1014.3
20260509175532 30 179 11.3 25.7 0.00 0.00 0.00 100 1014.3
20260509175035 30 135 9.7 27.4 0.00 0.00 0.00 100 1014.3
20260509174534 30 159 12.9 27.4 0.00 0.00 0.00 100 1014.4
20260509174033 30 146 4.8 19.3 0.00 0.00 0.00 100 1014.4
20260509173532 30 148 6.4 24.1 0.00 0.00 0.00 100 1014.3
20260509173031 30 171 11.3 24.1 0.00 0.00 0.00 100 1014.3
20260509172534 30 121 11.3 24.1 0.00 0.00 0.00 100 1014.5
20260509172031 30 116 9.7 22.5 0.00 0.00 0.00 100 1014.6
20260509171531 31 174 6.4 22.5 0.00 0.00 0.00 100 1014.6
20260509171030 32 143 9.7 22.5 0.00 0.00 0.00 100 1014.6
20260509170528 32 162 8.0 19.3 0.00 0.00 0.00 100 1014.6
20260509170030 32 213 9.7 22.5 0.00 0.00 0.00 100 1014.6
20260509165527 32 188 4.8 19.3 0.00 0.00 0.00 100 1014.6
20260509165023 32 267 8.0 19.3 0.00 0.00 0.00 100 1014.7
20260509164522 32 234 8.0 19.3 0.00 0.00 0.00 100 1014.8
20260509164021 32 188 8.0 19.3 0.00 0.00 0.00 100 1014.9
20260509163519 32 180 8.0 19.3 0.00 0.00 0.00 100 1014.9
20260509163023 31 207 6.4 19.3 0.00 0.00 0.00 100 1015.1
20260509162518 31 198 9.7 25.7 0.00 0.00 0.00 100 1015.2
20260509162018 31 175 8.0 25.7 0.00 0.00 0.00 100 1015.1
20260509161518 31 211 6.4 20.9 0.00 0.00 0.00 100 1015.3
20260509161014 31 200 4.8 16.1 0.00 0.00 0.00 100 1015.2
20260509160514 31 204 8.0 16.1 0.00 0.00 0.00 100 1015.3
20260509160014 31 204 4.8 16.1 0.00 0.00 0.00 100 1015.5
20260509155510 31 238 8.0 16.1 0.00 0.00 0.00 100 1015.6
20260509155008 31 165 8.0 17.7 0.00 0.00 0.00 100 1015.5
20260509154507 31 246 6.4 17.7 0.00 0.00 0.00 100 1015.6
20260509154006 31 198 4.8 17.7 0.00 0.00 0.00 100 1015.8
20260509153507 31 230 8.0 14.5 0.00 0.00 0.00 100 1015.9
20260509153009 31 207 6.4 16.1 0.00 0.00 0.00 100 1015.9
20260509152501 31 233 6.4 17.7 0.00 0.00 0.00 100 1016.0
20260509152101 30 175 6.4 20.9 0.00 0.00 0.00 100 1016.0
20260509151559 30 267 9.7 20.9 0.00 0.00 0.00 100 1016.0
20260509151056 30 178 8.0 16.1 0.00 0.00 0.00 100 1015.9
20260509150557 30 238 6.4 17.7 0.00 0.00 0.00 100 1016.0
20260509150053 30 226 6.4 27.4 0.00 0.00 0.00 100 1015.9
20260509145552 30 232 8.0 27.4 0.00 0.00 0.00 100 1016.0
20260509145051 30 246 6.4 16.1 0.00 0.00 0.00 100 1015.9
20260509144549 30 202 4.8 19.3 0.00 0.00 0.00 100 1015.9
20260509144047 29 194 8.0 19.3 0.00 0.00 0.00 100 1015.8
20260509143547 29 225 6.4 17.7 0.00 0.00 0.00 100 1015.8
20260509143050 29 207 6.4 19.3 0.00 0.00 0.00 100 1015.8
20260509142544 29 231 8.0 19.3 0.00 0.00 0.00 100 1015.8
20260509142043 28 246 4.8 14.5 0.00 0.00 0.00 100 1015.8
20260509141544 28 240 4.8 22.5 0.00 0.00 0.00 100 1015.7
20260509141040 28 211 6.4 22.5 0.00 0.00 0.00 100 1015.8
20260509140539 28 239 6.4 16.1 0.00 0.00 0.00 100 1015.9
20260509140043 28 202 3.2 16.1 0.00 0.00 0.00 100 1016.0
20260509135537 27 218 6.4 12.9 0.00 0.00 0.00 100 1016.1
20260509135037 27 252 4.8 11.3 0.00 0.00 0.00 100 1016.1
20260509134545 27 192 3.2 14.5 0.00 0.00 0.00 100 1016.1
20260509134034 27 224 4.8 14.5 0.00 0.00 0.00 100 1016.2
20260509133534 27 205 4.8 14.5 0.00 0.00 0.00 100 1016.2
20260509133033 26 254 6.4 12.9 0.00 0.00 0.00 100 1016.2
20260509132532 26 232 1.6 11.3 0.00 0.00 0.00 100 1016.1
20260509132031 26 234 4.8 14.5 0.00 0.00 0.00 100 1016.0
20260509131533 26 233 3.2 12.9 0.00 0.00 0.00 100 1016.1
20260509131030 26 232 4.8 12.9 0.00 0.00 0.00 100 1015.9
20260509130529 26 207 1.6 12.9 0.00 0.00 0.00 100 1015.8
20260509130029 26 225 3.2 16.1 0.00 0.00 0.00 100 1015.8
20260509125528 25 235 4.8 16.1 0.00 0.00 0.00 100 1015.7
20260509125028 25 209 3.2 12.9 0.00 0.00 0.00 100 1015.7
20260509124527 25 240 4.8 12.9 0.00 0.00 0.00 100 1015.6
20260509124029 25 244 4.8 12.9 0.00 0.00 0.00 100 1015.7
20260509123527 25 215 3.2 12.9 0.00 0.00 0.00 100 1015.6
20260509123026 25 204 1.6 12.9 0.00 0.00 0.00 100 1015.4
20260509122527 24 237 4.8 12.9 0.00 0.00 0.00 100 1015.5
20260509122028 24 200 3.2 9.7 0.00 0.00 0.00 100 1015.3
20260509121529 24 192 4.8 9.7 0.00 0.00 0.00 100 1015.3
20260509121026 24 184 3.2 11.3 0.00 0.00 0.00 100 1015.3
20260509120526 24 234 4.8 11.3 0.00 0.00 0.00 100 1015.3
20260509120027 24 172 4.8 8.0 0.00 0.00 0.00 100 1015.3
20260509115526 24 223 4.8 11.3 0.00 0.00 0.00 100 1015.2
20260509115025 24 167 4.8 11.3 0.00 0.00 0.00 100 1015.2
20260509114525 24 209 0.0 8.0 0.00 0.00 0.00 100 1015.2
20260509114032 23 236 1.6 8.0 0.00 0.00 0.00 100 1015.2
20260509113526 23 230 1.6 6.4 0.00 0.00 0.00 100 1015.1
20260509113027 23 241 0.0 4.8 0.00 0.00 0.00 100 1015.1
20260509112525 23 206 0.0 0.0 0.00 0.00 0.00 100 1014.9
20260509112025 23 204 0.0 0.0 0.00 0.00 0.00 100 1015.1
20260509111525 23 204 0.0 0.0 0.00 0.00 0.00 100 1015.1
20260509111025 23 191 0.0 0.0 0.00 0.00 0.00 100 1015.0
20260509110525 23 191 0.0 0.0 0.00 0.00 0.00 100 1015.0
20260509110024 23 191 0.0 0.0 0.00 0.00 0.00 100 1014.9
20260509105529 23 190 0.0 0.0 0.00 0.00 0.00 100 1015.0
20260509105024 23 190 0.0 0.0 0.00 0.00 0.00 100 1014.9
20260509104524 23 169 0.0 0.0 0.00 0.00 0.00 100 1014.8
20260509104023 23 169 0.0 0.0 0.00 0.00 0.00 100 1014.8
20260509103524 23 169 0.0 0.0 0.00 0.00 0.00 100 1014.8
20260509103026 23 169 0.0 0.0 0.00 0.00 0.00 100 1014.8
20260509102525 23 169 0.0 0.0 0.00 0.00 0.00 100 1014.7
20260509102025 23 169 0.0 0.0 0.00 0.00 0.00 100 1014.7
20260509101524 23 169 0.0 0.0 0.00 0.00 0.00 100 1014.7
20260509101023 23 169 0.0 0.0 0.00 0.00 0.00 100 1014.7
20260509100522 23 169 0.0 0.0 0.00 0.00 0.00 100 1014.6
20260509100023 23 169 0.0 0.0 0.00 0.00 0.00 100 1014.6
20260509095523 23 169 0.0 0.0 0.00 0.00 0.00 100 1014.5
20260509095021 23 175 0.0 0.0 0.00 0.00 0.00 100 1014.4
20260509094522 23 175 0.0 1.6 0.00 0.00 0.00 100 1014.5
20260509094022 23 174 0.0 12.9 0.00 0.00 0.00 100 1014.5
20260509093524 23 173 1.6 12.9 0.00 0.00 0.00 100 1014.5
20260509093021 23 146 3.2 9.7 0.00 0.00 0.00 100 1014.6
20260509092521 23 162 1.6 9.7 0.00 0.00 0.00 100 1014.5
20260509092020 24 177 1.6 6.4 0.00 0.00 0.00 100 1014.6
20260509091528 24 180 1.6 6.4 0.00 0.00 0.00 100 1014.6
20260509091019 23 226 0.0 4.8 0.00 0.00 0.00 100 1014.7
20260509090518 23 227 0.0 4.8 0.00 0.00 0.00 100 1014.7
20260509090018 23 230 0.0 1.6 0.00 0.00 0.00 100 1014.7
20260509085517 23 230 0.0 0.0 0.00 0.00 0.00 100 1014.8
20260509085017 23 230 0.0 0.0 0.00 0.00 0.00 100 1014.9
20260509084524 23 230 0.0 3.2 0.00 0.00 0.00 100 1014.9
20260509084016 23 230 0.0 3.2 0.00 0.00 0.00 100 1015.0
20260509083520 23 229 0.0 4.8 0.00 0.00 0.00 100 1015.0
20260509083017 23 229 0.0 4.8 0.00 0.00 0.00 100 1015.0
20260509082519 23 219 0.0 3.2 0.00 0.00 0.00 100 1014.9
20260509082017 23 219 0.0 3.2 0.00 0.00 0.00 100 1015.0
20260509081517 23 219 0.0 0.0 0.00 0.00 0.00 100 1015.0
20260509081017 23 219 0.0 0.0 0.00 0.00 0.00 100 1014.9
20260509080515 23 219 0.0 0.0 0.00 0.00 0.00 100 1014.9
20260509080023 23 219 0.0 0.0 0.00 0.00 0.00 100 1014.9
20260509075516 23 219 0.0 0.0 0.00 0.00 0.00 100 1014.8
20260509075020 23 219 0.0 0.0 0.00 0.00 0.00 100 1014.9
20260509074516 23 219 0.0 0.0 0.00 0.00 0.00 100 1014.9
20260509074014 23 219 0.0 0.0 0.00 0.00 0.00 100 1014.9
20260509073514 23 219 0.0 3.2 0.00 0.00 0.00 100 1014.8
20260509073035 23 219 0.0 3.2 0.00 0.00 0.00 100 1014.8
20260509072515 23 219 0.0 0.0 0.00 0.00 0.00 100 1014.8
20260509072014 23 219 0.0 0.0 0.00 0.00 0.00 100 1014.8
20260509071514 23 219 0.0 1.6 0.00 0.00 0.00 100 1014.8
20260509071013 23 219 0.0 1.6 0.00 0.00 0.00 100 1014.8
20260509070512 23 219 0.0 4.8 0.00 0.00 0.00 100 1014.8
20260509070019 23 219 0.0 4.8 0.00 0.00 0.00 100 1015.0
20260509065515 23 221 0.0 3.2 0.00 0.00 0.00 100 1014.9
20260509065013 23 221 0.0 3.2 0.00 0.00 0.00 100 1014.9
20260509064511 23 229 0.0 6.4 0.00 0.00 0.00 100 1014.9
20260509064012 23 229 1.6 6.4 0.00 0.00 0.00 100 1014.9
20260509063510 23 234 0.0 4.8 0.00 0.00 0.00 100 1015.1
20260509063010 23 232 0.0 0.0 0.00 0.00 0.00 100 1015.0
20260509062513 23 232 0.0 0.0 0.00 0.00 0.00 100 1015.0
20260509062009 23 232 0.0 3.2 0.00 0.00 0.00 100 1015.1
20260509061509 23 232 0.0 4.8 0.00 0.00 0.00 100 1015.2
20260509061011 23 232 1.6 6.4 0.00 0.00 0.00 100 1015.3
20260509060509 23 232 1.6 8.0 0.00 0.00 0.00 100 1015.2
20260509060015 23 227 0.0 6.4 0.00 0.00 0.00 100 1015.3
20260509055508 23 227 0.0 6.4 0.00 0.00 0.00 100 1015.4
20260509055009 23 224 1.6 6.4 0.00 0.00 0.00 100 1015.4
20260509054506 23 231 0.0 14.5 0.00 0.00 0.00 100 1015.5
20260509054005 23 231 3.2 14.5 0.00 0.00 0.00 100 1015.5
20260509053505 24 229 3.2 14.5 0.00 0.00 0.00 100 1015.5
20260509053010 24 232 6.4 14.5 0.00 0.00 0.00 100 1015.6
20260509052503 24 269 1.6 14.5 0.00 0.00 0.00 100 1015.5
20260509052001 25 254 4.8 11.3 0.00 0.00 0.00 100 1015.7
20260509051501 25 240 3.2 12.9 0.00 0.00 0.00 100 1015.6
20260509051103 25 234 6.4 12.9 0.00 0.00 0.00 100 1015.7
20260509050559 25 238 1.6 8.0 0.00 0.00 0.00 100 1015.7
20260509050058 25 236 0.0 6.4 0.00 0.00 0.00 100 1015.7
20260509045557 25 232 1.6 6.4 0.00 0.00 0.00 100 1015.8
20260509045057 25 189 1.6 8.0 0.00 0.00 0.00 100 1015.7
20260509044557 25 220 1.6 8.0 0.00 0.00 0.00 100 1015.8
20260509044058 25 250 3.2 8.0 0.00 0.00 0.00 100 1015.7
20260509043554 25 223 0.0 11.3 0.00 0.00 0.00 100 1015.7
20260509043058 26 146 0.0 16.1 0.00 0.00 0.00 100 1015.6
20260509042555 26 163 6.4 16.1 0.00 0.00 0.00 100 1015.6
20260509042055 26 157 8.0 16.1 0.00 0.00 0.00 100 1015.4
20260509041554 26 172 8.0 16.1 0.00 0.00 0.00 100 1015.5
20260509041052 26 210 8.0 16.1 0.00 0.00 0.00 100 1015.5
20260509040557 26 180 9.7 19.3 0.00 0.00 0.00 100 1015.5
20260509035550 26 157 6.4 16.1 0.00 0.00 0.00 100 1015.6
20260509035049 26 149 8.0 17.7 0.00 0.00 0.00 100 1015.7
20260509034548 26 161 8.0 14.5 0.00 0.00 0.00 100 1015.7
20260509034048 26 123 6.4 12.9 0.00 0.00 0.00 100 1015.6
20260509033548 26 148 3.2 12.9 0.00 0.00 0.00 100 1015.7
20260509033050 26 171 3.2 16.1 0.00 0.00 0.00 100 1015.8
20260509032548 26 172 6.4 17.7 0.00 0.00 0.00 100 1015.9
20260509032048 26 151 6.4 19.3 0.00 0.00 0.00 100 1015.7
20260509031547 26 153 6.4 14.5 0.00 0.00 0.00 100 1015.8
20260509031047 26 161 4.8 16.1 0.00 0.00 0.00 100 1015.8
20260509030546 26 160 8.0 16.1 0.00 0.00 0.00 100 1015.8
20260509030047 26 157 6.4 14.5 0.00 0.00 0.00 100 1015.8
20260509025547 26 153 6.4 14.5 0.00 0.00 0.00 100 1015.7
20260509025046 26 142 8.0 16.1 0.00 0.00 0.00 100 1015.8
20260509024546 26 179 6.4 16.1 0.00 0.00 0.00 100 1015.8
20260509024046 26 165 3.2 14.5 0.00 0.00 0.00 100 1015.8
20260509023546 26 141 3.2 14.5 0.00 0.00 0.00 100 1015.7
20260509023047 26 153 4.8 14.5 0.00 0.00 0.00 100 1015.7
20260509022545 26 136 6.4 14.5 0.00 0.00 0.00 100 1015.7
20260509022048 26 161 6.4 14.5 0.00 0.00 0.00 100 1015.7
20260509021546 26 153 6.4 14.5 0.00 0.00 0.00 100 1015.6
20260509021044 26 112 6.4 16.1 0.00 0.00 0.00 100 1015.6
20260509020544 26 169 8.0 16.1 0.00 0.00 0.00 100 1015.5
20260509020045 26 150 6.4 12.9 0.00 0.00 0.00 100 1015.5
20260509015556 26 142 4.8 12.9 0.00 0.00 0.00 100 1015.5
20260509015045 26 136 3.2 16.1 0.00 0.00 0.00 100 1015.4
20260509014544 26 161 8.0 16.1 0.00 0.00 0.00 100 1015.3
20260509014047 26 158 6.4 16.1 0.00 0.00 0.00 100 1015.2
20260509013544 26 138 4.8 14.5 0.00 0.00 0.00 100 1015.3
20260509013057 26 142 6.4 17.7 0.00 0.00 0.00 100 1015.3
20260509012543 26 133 9.7 16.1 0.00 0.00 0.00 100 1015.2
20260509012042 26 117 4.8 14.5 0.00 0.00 0.00 100 1015.3
20260509011543 26 150 8.0 14.5 0.00 0.00 0.00 100 1015.3
20260509011043 26 169 6.4 12.9 0.00 0.00 0.00 100 1015.3
20260509010542 26 178 4.8 16.1 0.00 0.00 0.00 100 1015.2
20260509010043 26 157 8.0 16.1 0.00 0.00 0.00 100 1015.3
20260509005541 26 146 4.8 14.5 0.00 0.00 0.00 100 1015.2
20260509005042 26 132 6.4 14.5 0.00 0.00 0.00 100 1015.1
20260509004604 26 141 8.0 16.1 0.00 0.00 0.00 100 1015.0
20260509004041 26 132 8.0 16.1 0.00 0.00 0.00 100 1015.0
20260509003541 26 161 4.8 14.5 0.00 0.00 0.00 100 1015.1
20260509003045 26 148 4.8 12.9 0.00 0.00 0.00 100 1014.9
20260509002543 26 144 4.8 16.1 0.00 0.00 0.00 100 1014.8
20260509002040 26 157 4.8 16.1 0.00 0.00 0.00 100 1014.7
20260509001543 26 132 6.4 16.1 0.00 0.00 0.00 100 1014.7
20260509001046 26 161 6.4 16.1 0.00 0.00 0.00 100 1014.7
20260509000542 26 134 8.0 16.1 0.00 0.00 0.00 100 1014.6
20260509000040 26 121 3.2 16.1 0.00 0.00 0.00 100 1014.6
20260508235541 26 161 8.0 16.1 0.00 0.00 0.00 100 1014.5
20260508235040 26 150 3.2 16.1 0.00 0.00 0.00 100 1014.3
20260508234545 26 148 4.8 16.1 0.00 0.00 0.00 100 1014.2
20260508234040 26 183 8.0 16.1 0.00 0.00 0.00 100 1014.2
20260508233540 26 130 4.8 14.5 0.00 0.00 0.00 100 1014.2
20260508233039 26 163 6.4 14.5 0.00 0.00 0.00 100 1014.2
20260508232541 26 146 8.0 14.5 0.00 0.00 0.00 100 1014.2
20260508232040 26 153 4.8 17.7 0.00 0.00 0.00 100 1014.1
20260508231538 26 136 6.4 17.7 0.00 0.00 0.00 100 1014.1
20260508231038 26 150 8.0 17.7 0.00 0.00 0.00 100 1014.1
20260508230539 26 146 8.0 17.7 0.00 0.00 0.00 100 1013.9
20260508230051 26 136 9.7 16.1 0.00 0.00 0.00 100 1013.9
20260508225538 27 157 6.4 16.1 0.00 0.00 0.00 100 1013.9